sat.trackr.live / text

‹ back to catalog

STARLINK-35939

NORAD 66584 · 2025-268AD

PAYLOAD ACTIVE UNKNOWN

§ Identity

Operator
Country
US
Launch date
2025-11-21
Launch site
AFETR
Launch vehicle
Mass (kg)
RCS (m²)

Purposes: comms

External: N2YO · Heavens-Above · Gunter

§ Orbital elements

Epoch: 2026-05-25T01:23:43.691712Z

Period
94.27 min
Inclination
43.0010°
Eccentricity
0.0001149
Mean motion
15.27588612 rev/d
Perigee alt
482.2 km
Apogee alt
483.8 km
Semi-major
6,861.2 km
B*
5.9066e-4
RAAN
275.3898°
Arg perigee
24.0100°
Mean anomaly
336.0805°
Rev number
2,964

§ Raw data

STARLINK-359391 66584U 25268AD  26145.05814458  .00016031  00000+0  59066-3 0  99942 66584  43.0010 275.3898 0001149  24.0100 336.0805 15.27588612 29644

JSON: /api/v1/satellites/66584 · /tle

For live sub-satellite position, see the globe view (requires WebGL).

§ Visibility from observer

Set your observer location to see the next 7 days of passes ≥ 10°. The values pass through the URL so the page stays shareable.

No JS? Fill the form by hand. The geolocation button needs JavaScript.